• In Belarus
  • List of Countries
  • For 7 days
  • Water Temperature
  • Satellite Maps
  • Weather Map
  • Weather Widgets
  • user-avatar
    Login

    Hourly Weather Ghanzi

    Today, 15 December, Friday

    Time Temperature Precipitation Wind Pressure Humidity
    00:00 +15°C° 0 mm 4 mps 719 mmHg 46%
    01:00 +14°C° 0 mm 4 mps 719 mmHg 48%
    02:00 +14°C° 0 mm 4 mps 719 mmHg 50%
    03:00 +13°C° 0 mm 4 mps 719 mmHg 52%
    04:00 +13°C° 0 mm 4 mps 719 mmHg 53%
    05:00 +13°C° 0 mm 4 mps 719 mmHg 53%
    06:00 +13°C° 0 mm 4 mps 720 mmHg 53%
    07:00 +13°C° 0 mm 4 mps 720 mmHg 52%
    08:00 +15°C° 0 mm 5 mps 720 mmHg 45%
    09:00 +17°C° 0 mm 5 mps 720 mmHg 38%
    10:00 +20°C° 0 mm 5 mps 721 mmHg 31%
    11:00 +21°C° 0 mm 5 mps 720 mmHg 27%
    12:00 +23°C° 0 mm 5 mps 720 mmHg 24%
    13:00 +25°C° 0 mm 4 mps 719 mmHg 20%
    14:00 +25°C° 0 mm 4 mps 719 mmHg 20%
    15:00 +25°C° 0 mm 4 mps 719 mmHg 19%
    16:00 +25°C° 0 mm 4 mps 718 mmHg 19%
    17:00 +22°C° 0 mm 4 mps 718 mmHg 21%
    18:00 +20°C° 0 mm 4 mps 719 mmHg 23%
    19:00 +19°C° 0 mm 4 mps 719 mmHg 25%
    20:00 +18°C° 0 mm 4 mps 719 mmHg 27%
    21:00 +17°C° 0 mm 4 mps 719 mmHg 28%
    22:00 +17°C° 0 mm 4 mps 720 mmHg 30%
    23:00 +15°C° 0 mm 4 mps 719 mmHg 32%

    Tomorrow, 16 December, Saturday

    Time Temperature Precipitation Wind Pressure Humidity
    00:00 +14°C° 0 mm 4 mps 719 mmHg 34%
    01:00 +14°C° 0 mm 4 mps 719 mmHg 37%
    02:00 +13°C° 0 mm 4 mps 719 mmHg 39%
    03:00 +13°C° 0 mm 3 mps 718 mmHg 41%
    04:00 +12°C° 0 mm 3 mps 718 mmHg 43%
    05:00 +12°C° 0 mm 3 mps 718 mmHg 42%
    06:00 +12°C° 0 mm 3 mps 718 mmHg 41%
    07:00 +14°C° 0 mm 2 mps 718 mmHg 40%
    08:00 +16°C° 0 mm 2 mps 719 mmHg 33%
    09:00 +18°C° 0 mm 3 mps 719 mmHg 27%
    10:00 +21°C° 0 mm 3 mps 719 mmHg 21%
    11:00 +22°C° 0 mm 3 mps 719 mmHg 18%
    12:00 +25°C° 0 mm 3 mps 718 mmHg 16%
    13:00 +26°C° 0 mm 2 mps 718 mmHg 14%
    14:00 +26°C° 0 mm 2 mps 717 mmHg 14%
    15:00 +26°C° 0 mm 2 mps 717 mmHg 14%
    16:00 +26°C° 0 mm 2 mps 716 mmHg 13%
    17:00 +23°C° 0 mm 1 mps 716 mmHg 16%
    18:00 +21°C° 0 mm 1 mps 717 mmHg 18%
    19:00 +19°C° 0 mm 1 mps 717 mmHg 21%
    20:00 +18°C° 0 mm 2 mps 717 mmHg 21%
    21:00 +18°C° 0 mm 2 mps 717 mmHg 21%
    22:00 +18°C° 0 mm 2 mps 717 mmHg 21%
    23:00 +17°C° 0 mm 2 mps 717 mmHg 21%

    Day after tomorrow, 17 December, Sunday

    Time Temperature Precipitation Wind Pressure Humidity
    00:00 +17°C° 0 mm 2 mps 717 mmHg 22%
    01:00 +16°C° 0 mm 2 mps 716 mmHg 23%
    02:00 +15°C° 0 mm 2 mps 716 mmHg 24%
    03:00 +15°C° 0 mm 2 mps 716 mmHg 25%
    04:00 +15°C° 0 mm 2 mps 715 mmHg 25%
    05:00 +15°C° 0 mm 2 mps 716 mmHg 26%
    06:00 +14°C° 0 mm 3 mps 716 mmHg 26%
    07:00 +14°C° 0 mm 3 mps 716 mmHg 26%
    08:00 +17°C° 0 mm 3 mps 717 mmHg 23%
    09:00 +20°C° 0 mm 3 mps 717 mmHg 20%
    10:00 +22°C° 0 mm 3 mps 718 mmHg 17%
    11:00 +24°C° 0 mm 3 mps 717 mmHg 15%
    12:00 +26°C° 0 mm 2 mps 717 mmHg 13%
    13:00 +27°C° 0 mm 2 mps 716 mmHg 11%
    14:00 +27°C° 0 mm 2 mps 716 mmHg 11%
    15:00 +27°C° 0 mm 2 mps 715 mmHg 11%
    16:00 +26°C° 0 mm 2 mps 715 mmHg 11%
    17:00 +25°C° 0 mm 2 mps 715 mmHg 13%
    18:00 +22°C° 0 mm 3 mps 716 mmHg 14%
    19:00 +21°C° 0 mm 3 mps 716 mmHg 16%
    20:00 +20°C° 0 mm 3 mps 717 mmHg 17%
    21:00 +19°C° 0 mm 4 mps 717 mmHg 18%
    22:00 +19°C° 0 mm 4 mps 717 mmHg 18%
    23:00 +18°C° 0 mm 3 mps 717 mmHg 20%

    18 December, Monday

    Time Temperature Precipitation Wind Pressure Humidity
    00:00 +17°C° 0 mm 3 mps 717 mmHg 21%
    01:00 +17°C° 0 mm 3 mps 716 mmHg 22%
    02:00 +16°C° 0 mm 3 mps 716 mmHg 23%
    03:00 +16°C° 0 mm 3 mps 716 mmHg 24%
    04:00 +15°C° 0 mm 2 mps 716 mmHg 25%
    05:00 +15°C° 0 mm 2 mps 716 mmHg 25%
    06:00 +15°C° 0 mm 2 mps 716 mmHg 25%
    07:00 +15°C° 0 mm 2 mps 717 mmHg 24%
    08:00 +18°C° 0 mm 2 mps 717 mmHg 22%
    09:00 +20°C° 0 mm 2 mps 717 mmHg 19%
    10:00 +23°C° 0 mm 2 mps 718 mmHg 17%
    11:00 +25°C° 0 mm 2 mps 717 mmHg 16%
    12:00 +26°C° 0 mm 2 mps 716 mmHg 14%
    13:00 +27°C° 0 mm 2 mps 715 mmHg 13%
    14:00 +27°C° 0 mm 2 mps 715 mmHg 14%
    15:00 +27°C° 0 mm 2 mps 715 mmHg 14%
    16:00 +27°C° 0 mm 2 mps 714 mmHg 14%
    17:00 +25°C° 0 mm 2 mps 715 mmHg 16%
    18:00 +22°C° 0 mm 3 mps 715 mmHg 17%
    19:00 +21°C° 0 mm 3 mps 715 mmHg 19%
    20:00 +20°C° 0 mm 3 mps 715 mmHg 20%
    21:00 +19°C° 0 mm 3 mps 715 mmHg 21%
    22:00 +19°C° 0 mm 3 mps 715 mmHg 23%
    23:00 +18°C° 0 mm 3 mps 715 mmHg 23%

    19 December, Tuesday

    Time Temperature Precipitation Wind Pressure Humidity
    00:00 +18°C° 0 mm 3 mps 715 mmHg 24%
    01:00 +17°C° 0 mm 3 mps 715 mmHg 25%
    02:00 +17°C° 0 mm 3 mps 715 mmHg 25%
    03:00 +16°C° 0 mm 3 mps 715 mmHg 26%
    04:00 +16°C° 0 mm 3 mps 715 mmHg 26%
    05:00 +16°C° 0 mm 3 mps 715 mmHg 26%
    06:00 +16°C° 0 mm 2 mps 715 mmHg 27%
    07:00 +16°C° 0 mm 2 mps 716 mmHg 27%
    08:00 +19°C° 0 mm 2 mps 716 mmHg 25%
    09:00 +21°C° 0 mm 2 mps 716 mmHg 22%
    10:00 +24°C° 0 mm 3 mps 717 mmHg 20%
    11:00 +26°C° 0 mm 3 mps 716 mmHg 19%
    12:00 +27°C° 0 mm 3 mps 715 mmHg 17%
    13:00 +29°C° 0 mm 3 mps 715 mmHg 16%
    14:00 +28°C° 0 mm 2 mps 715 mmHg 16%
    15:00 +28°C° 0 mm 2 mps 714 mmHg 17%
    16:00 +27°C° 0 mm 1 mps 714 mmHg 17%
    17:00 +25°C° 0 mm 1 mps 714 mmHg 19%
    18:00 +24°C° 0 mm 1 mps 714 mmHg 22%
    19:00 +21°C° 0 mm 2 mps 714 mmHg 24%
    20:00 +20°C° 0 mm 2 mps 714 mmHg 25%
    21:00 +20°C° 0 mm 2 mps 714 mmHg 25%
    22:00 +20°C° 0 mm 3 mps 714 mmHg 26%
    23:00 +19°C° 0 mm 3 mps 714 mmHg 27%

    20 December, Wednesday

    Time Temperature Precipitation Wind Pressure Humidity
    00:00 +19°C° 0 mm 3 mps 714 mmHg 28%
    01:00 +18°C° 0 mm 3 mps 714 mmHg 29%
    02:00 +18°C° 0 mm 2 mps 714 mmHg 31%
    03:00 +17°C° 0 mm 2 mps 713 mmHg 32%
    04:00 +17°C° 0 mm 2 mps 713 mmHg 33%
    05:00 +17°C° 0 mm 2 mps 714 mmHg 33%
    06:00 +17°C° 0 mm 2 mps 714 mmHg 33%
    07:00 +17°C° 0 mm 2 mps 714 mmHg 33%
    08:00 +20°C° 0 mm 2 mps 715 mmHg 30%
    09:00 +22°C° 0 mm 3 mps 715 mmHg 26%
    10:00 +26°C° 0 mm 3 mps 716 mmHg 22%
    11:00 +27°C° 0 mm 3 mps 715 mmHg 20%
    12:00 +28°C° 0 mm 2 mps 715 mmHg 19%
    13:00 +30°C° 0 mm 2 mps 714 mmHg 17%
    14:00 +29°C° 0 mm 1 mps 714 mmHg 17%
    15:00 +29°C° 0 mm 1 mps 714 mmHg 17%
    16:00 +28°C° 0 mm 1 mps 714 mmHg 17%
    17:00 +27°C° 0 mm 1 mps 714 mmHg 19%
    18:00 +25°C° 0 mm 2 mps 714 mmHg 21%
    19:00 +24°C° 0 mm 3 mps 715 mmHg 23%
    20:00 +22°C° 0 mm 3 mps 715 mmHg 24%
    21:00 +22°C° 0 mm 3 mps 715 mmHg 25%
    22:00 +22°C° 0 mm 4 mps 715 mmHg 26%
    23:00 +21°C° 0 mm 3 mps 715 mmHg 27%
    Show more